NOAA 16 DEB, 41224

Orbit data source: Space-Track

NOAA 16 DEB, 41224 is space debris in SSO originally from a launch on Thu, 21 Sep 2000 UTC launched from the Air Force Western Test Range (AFWTR). Debris objects in space refer to the collection of defunct objects orbiting the Earth. Examples of debris include non-operational satellites, rocket bodies, and fragments generated from explosions, collisions, or faulty payload assembly.

Loading next visibility...
Identifier
41224, 2000-055ED
Orbit
SSO
Country
Flag of USUS
Related business
Manufacturer
Unknown
Mission
Spacecraft
Bus & Motor
Unknown
Mass
Unknown
Launch date (UTC)
2000-09-21 (26 years ago)
Launch vehicle
Unknown
Launch site
Air Force Western Test Range (AFWTR)
Object type
Payload
Rocket body
Debris
Shape & HBR
Unknown shape, 0.1 m
Radar Cross Section
Medium (>0.1 m² and <1 m²)

Expand to show TLE details & history
Last TLE update: 16 hours ago

TLE from 16 hours ago
0 NOAA 16 DEB
1 41224U 00055ED  26254.25432290  .00021833  00000-0  33146-2 0  9995
2 41224  98.8914  46.4813 0016702 144.5548 215.6771 14.73985179556725
Epoch: 2026-09-11T06:06Z
TLE epoch observation values (Epoch: 2026-09-11T06:06:13.498Z)
Latitude
-0.00002°
Longitude
-35.35525°
Altitude
660.898 km
Speed
7.522 km/s
True Right ascension
03h 05m 55s
True Declination
0° 00' 00"
Sunlit
Object was in full shadow at epoch
Visualization orbit readout
Latitude
Unknown
Longitude
Unknown
Altitude
Unknown
Speed
Unknown
Apparent Right ascension
Unknown
Apparent Declination
Unknown
Sunlit
N/A
Visualization observer readout
Local Sidereal Time
14:40:04
Azimuth
Unknown
Elevation
Unknown
Doppler factor
Unknown
Orbital elements
Apogee altitude
657.201 km
Perigee altitude
633.74 km
Semi-major axis
7,023.607 km
Eccentricity
0.00167
Inclination
98.8914°
RAAN
46.4813°
Arg. of periapsis
144.5548°
True anomaly
215.56567°
Mean anomaly
215.6771°
Eccentric anomaly
215.62136°
Mean motion
3.68725 °/min
Orbital period
97.63 mins
BSTAR
0.0033146
Loading maneuver chart data...
Computing Atmospheric mass density...
Loading historical data...
Loading historical data...
Loading historical data...
Loading historical data...
Loading historical data...
Loading historical data...
Loading historical data...

Documentation

Showing up to 5 results
|